Regional Weather Roundup
Issued by NWS

Home | Current Version | Previous Version | Graphics & Text | Print | Product List | Glossary On
Versions: 1 2 3 4 5 6 7 8 9 10 11 12 13 14 15 16 17 18 19 20 21 22 23 24 25 26 27 28 29 30 31 32 33 34 35 36 37 38 39 40 41 42 43 44 45 46 47 48 49 50
986
ASUS43 KDTX 240010
RWRMI
MICHIGAN HOURLY REGIONAL WEATHER ROUNDUP
NATIONAL WEATHER SERVICE DETROIT/PONTIAC MI
800 PM EDT WED AUG 23 2017

NOTE: "FAIR" INDICATES FEW OR NO CLOUDS BELOW 12,000 FEET WITH NO
SIGNIFICANT WEATHER AND/OR OBSTRUCTION TO VISIBILITY.

MIZ047>049-052>055-059>063-066>070-074>076-081>083-240100-
SOUTHEAST LOWER MICHIGAN

CITY           SKY/WX    TMP DP  RH WIND       PRES   REMARKS
ADRIAN         CLEAR     68  51  54 NW6       29.98R
6HR MIN TEMP:  68; 6HR MAX TEMP:  77;

ALMA           CLEAR     65  47  52 NW9       29.99R
ANN ARBOR      PTCLDY    70  50  49 NW9       29.96R
BAD AXE        MOCLDY    63  54  73 NE5       29.97R
6HR MIN TEMP:  63; 6HR MAX TEMP:  71;

CARO           PTCLDY    64  49  58 NW8       29.96R
DETROIT CITY   CLOUDY    72  51  47 NW5       29.95R
6HR MIN TEMP:  72; 6HR MAX TEMP:  75;

DETROIT        CLOUDY    70  51  51 NW9       29.95R
6HR MIN TEMP:  70; 6HR MAX TEMP:  78;

FLINT          PTCLDY    68  51  54 NW7       29.96R
6HR MIN TEMP:  68; 6HR MAX TEMP:  74;

GROSSE ILE     PTCLDY    72  48  43 NW7       29.94R
6HR MIN TEMP:  72; 6HR MAX TEMP:  77;

HILLSDALE      MOCLDY    64  50  59 W7        29.99R
HOWELL         CLOUDY    67  52  58 NW3       29.97S
6HR MIN TEMP:  67; 6HR MAX TEMP:  73;


CITY           SKY/WX    TMP DP  RH WIND       PRES   REMARKS
JACKSON        PTCLDY    67  51  56 W6        29.98R
6HR MIN TEMP:  67; 6HR MAX TEMP:  74;

LAMBERTVILLE   MOCLDY    70  53  55 N3        29.95S
6HR MIN TEMP:  70; 6HR MAX TEMP:  76;

LANSING        MOCLDY    68  49  50 NW7       29.99R
6HR MIN TEMP:  68; 6HR MAX TEMP:  74;

LAPEER         FAIR      66  51  57 CALM      29.97R
6HR MIN TEMP:  66; 6HR MAX TEMP:  73;

MASON          CLOUDY    69  49  47 NW6       29.98R
MONROE         CLOUDY    70  52  52 NW6       29.94S
6HR MIN TEMP:  70; 6HR MAX TEMP:  77;

MT. CLEMENS    MOCLDY    69  54  59 NW7       29.94S
6HR MIN TEMP:  68; 6HR MAX TEMP:  74;

PONTIAC        MOCLDY    68  53  58 NW6       29.95S
6HR MIN TEMP:  68; 6HR MAX TEMP:  74;

PORT HOPE        N/A     64  55  72 N8        29.95S
6HR MIN TEMP:  64; 6HR MAX TEMP:  71;

PORT HURON     CLOUDY    63  57  82 CALM      29.95S
TRI CITIES     CLEAR     65  49  56 N10       29.98R
6HR MIN TEMP:  65; 6HR MAX TEMP:  74;

MIDLAND        FAIR      64  48  57 NW3       29.98R
6HR MIN TEMP:  64; 6HR MAX TEMP:  74;

TROY           PTCLDY    70  49  47 NW6       29.97S
SAGINAW HB     CLEAR     64  48  55 NW8       29.97R
$$
MIZ043>046-050>051-056>058-064>065-071>073-077>080-240100-
SOUTHWEST LOWER MICHIGAN

CITY           SKY/WX    TMP DP  RH WIND       PRES   REMARKS
BATTLE CREEK   CLEAR     67  50  54 NW8       30.00S
6HR MIN TEMP:  67; 6HR MAX TEMP:  75;

BENTON HARBOR  CLEAR     67  51  56 CALM      30.01F
6HR MIN TEMP:  67; 6HR MAX TEMP:  73;

BIG RAPIDS     CLEAR     62  45  54 N3        30.00S
6HR MIN TEMP:  62; 6HR MAX TEMP:  69;

COLDWATER      CLEAR     66  47  50 W6        30.00S
6HR MIN TEMP:  66; 6HR MAX TEMP:  75;

FREMONT        FAIR      63  50  62 N3        30.01R
HOLLAND        CLEAR     66  51  58 NW7       30.01F
6HR MIN TEMP:  66; 6HR MAX TEMP:  71;

GRAND RAPIDS   PTCLDY    67  49  52 NW13      30.00R
6HR MIN TEMP:  67; 6HR MAX TEMP:  75;

IONIA          FAIR      67  48  50 NW8       29.99R
6HR MIN TEMP:  67; 6HR MAX TEMP:  74;

KALAMAZOO      CLEAR     68  47  46 NW12      30.01S
6HR MIN TEMP:  68; 6HR MAX TEMP:  76;

LUDINGTON      CLEAR     62  51  67 CALM      30.01S
6HR MIN TEMP:  62; 6HR MAX TEMP:  68;

MARSHALL       CLEAR     66  51  56 W6        29.99S
6HR MIN TEMP:  66; 6HR MAX TEMP:  76;

MOUNT PLEASANT CLEAR     66  47  50 CALM      29.98S
6HR MIN TEMP:  66; 6HR MAX TEMP:  74;

MUSKEGON       PTCLDY    67  50  54 N8        30.01R
6HR MIN TEMP:  67; 6HR MAX TEMP:  72;

SOUTH HAVEN    CLEAR     66  53  62 CALM      30.01F
$$
MIZ016>042-240100-
NORTHERN LOWER MICHIGAN

CITY           SKY/WX    TMP DP  RH WIND       PRES   REMARKS
ALPENA         CLOUDY    61  50  67 NW9G18    29.98R
6HR MIN TEMP:  61; 6HR MAX TEMP:  69;

BEAVER ISLAND  CLEAR     58  44  60 NW9       30.02R
6HR MIN TEMP:  58; 6HR MAX TEMP:  65;

BELLAIRE       CLEAR     59  48  67 CALM      30.01S
6HR MIN TEMP:  59; 6HR MAX TEMP:  65;

CADILLAC       CLEAR     61  48  62 CALM      30.02R
CHARLEVOIX     CLEAR     60  48  64 N7        30.04R
6HR MIN TEMP:  60; 6HR MAX TEMP:  65;

FRANKFORT      CLEAR     64  50  61 CALM      30.00F
GAYLORD        CLEAR     57  45  64 NW7       30.01R
6HR MIN TEMP:  57; 6HR MAX TEMP:  63;

GRAYLING       CLEAR     58  45  60 NW7       30.01S
6HR MIN TEMP:  58; 6HR MAX TEMP:  67;

HARBOR SPRINGS CLEAR     58  47  66 NW3       30.01R
HOUGHTON LAKE  CLEAR     60  45  57 NW8       30.01R
6HR MIN TEMP:  60; 6HR MAX TEMP:  68;

MANISTEE       CLEAR     63  51  65 NW3       30.01S
OSCODA         PTCLDY    62  47  58 NW7G17    29.96S
6HR MIN TEMP:  62; 6HR MAX TEMP:  73;

PELLSTON       CLEAR     59  48  67 NW7       30.01R
6HR MIN TEMP:  59; 6HR MAX TEMP:  65;

ROGERS CITY    CLOUDY    59  50  71 NW10G17   30.00R
TRAVERSE CITY  PTCLDY    63  50  62 N6        30.00S
6HR MIN TEMP:  63; 6HR MAX TEMP:  69;

$$
MIZ007>008-015-240100-
EASTERN UPPER MICHIGAN

CITY           SKY/WX    TMP DP  RH WIND       PRES   REMARKS
KINROSS        CLOUDY    55  47  74 NW14      29.99S
6HR MIN TEMP:  55; 6HR MAX TEMP:  59;

MACKINAC ISLAN CLEAR     57  47  67 NW10G16   29.99R
6HR MIN TEMP:  57; 6HR MAX TEMP:  61;

NEWBERRY       PTCLDY    52  46  78 NW7       30.01S
6HR MIN TEMP:  52; 6HR MAX TEMP:  58;

S. S. MARIE    CLOUDY    57  49  74 NW9       29.98S
6HR MIN TEMP:  57; 6HR MAX TEMP:  59; 6HR PCP: TRACE;

MUNISING         N/A     58  49  72 N17       30.03F
6HR MIN TEMP:  57; 6HR MAX TEMP:  60;

$$
MIZ004>006-011>014-085-240100-
CENTRAL UPPER MICHIGAN

CITY           SKY/WX    TMP DP  RH WIND       PRES   REMARKS
MANISTIQUE     CLEAR     54  42  64 N8        30.03R
6HR MIN TEMP:  54; 6HR MAX TEMP:  64;

ESCANABA       CLEAR     59  46  62 N6        30.03R
6HR MIN TEMP:  59; 6HR MAX TEMP:  68;

MENOMINEE      CLEAR     66  46  48 N7        30.02R
6HR MIN TEMP:  66; 6HR MAX TEMP:  70;

SAWYER-GWINN   CLEAR     55  43  62 N13       30.05R
$$
MIZ001>003-009>011-084-240100-
WESTERN UPPER MICHIGAN

CITY           SKY/WX    TMP DP  RH WIND       PRES   REMARKS
IRON MOUNTAIN  CLEAR     60  41  49 N8        30.03R
6HR MIN TEMP:  60; 6HR MAX TEMP:  68;

HOUGHTON       CLOUDY    56  42  59 W7        30.05S
6HR MIN TEMP:  56; 6HR MAX TEMP:  60;

COPPER HARBOR    N/A     58  43  57 N3        30.04R
6HR MIN TEMP:  56; 6HR MAX TEMP:  61;

IRONWOOD       CLEAR     59  39  47 CALM      30.08S
6HR MIN TEMP:  58; 6HR MAX TEMP:  61;

$$

ABBREVIATIONS USED IN REMARKS
   TC - TEMPERATURE IN CELSIUS
  WCI - WIND CHILL INDEX
   HX - HEAT INDEX
  VSB - VISIBILITY





USA.gov is the U.S. government's official web portal to all federal, state and local government web resources and services.